Regional Weather Roundup
Issued by NWS

Home | Current Version | Previous Version | Graphics & Text | Print | Product List | Glossary On
Versions: 1 2 3 4 5 6 7 8 9 10 11 12 13 14 15 16 17 18 19 20 21 22 23 24 25 26 27 28 29 30 31 32 33 34 35 36 37 38 39 40 41 42 43 44 45 46 47 48 49 50
000
ASUS43 KOAX 272102
RWRNE

WEATHER ROUNDUP FOR NEBRASKA
NATIONAL WEATHER SERVICE OMAHA NE
300 PM CST MON FEB 27 2017

NOTES: SATELLITE DATA IS BEING USED TO AUGMENT CLOUD COVER ABOVE
       12000 FEET.
       "FAIR" INDICATES FEW OR NO CLOUDS BELOW 12,000 FEET WITH NO
       SIGNIFICANT WEATHER AND/OR OBSTRUCTIONS TO VISIBILITY.

  * THESE STATIONS DO NOT REPORT WEATHER SUCH AS RAIN...SNOW OR FOG.

NEZ001>004-019>022-054>056-272200-
NEBRASKA PANHANDLE

CITY           SKY/WX    TMP DP  RH WIND       PRES   REMARKS
SCOTTSBLUFF    PTSUNNY   37  20  50 SE8       29.56F WCI  31
ALLIANCE       PTSUNNY   34  26  72 SE10      29.56F WCI  26
CHADRON        CLOUDY    37  14  38 CALM      29.59S
KIMBALL        SUNNY     50  20  31 S16       29.55F
SIDNEY         SUNNY     52  13  21 S16       29.57F
$$

NEZ057>060-069>072-079>082-272200-
SOUTHWEST NEBRASKA

CITY           SKY/WX    TMP DP  RH WIND       PRES   REMARKS
NORTH PLATTE   SUNNY     50  27  40 S14       29.64F
IMPERIAL       SUNNY     52  20  28 S13       29.62F
LEXINGTON      SUNNY     53  32  45 S21       29.66F
MCCOOK         SUNNY     54  26  34 S10       29.65F
OGALLALA       SUNNY     49  28  44 SE10      29.62F
$$

NEZ005>010-023>029-035>040-094-272200-
NORTH CENTRAL NEBRASKA

CITY           SKY/WX    TMP DP  RH WIND       PRES   REMARKS
VALENTINE      PTSUNNY   39  28  64 SW10      29.65F WCI  32
AINSWORTH      SUNNY     42  32  67 S12       29.64F
BROKEN BOW     SUNNY     49  33  54 S22G28    29.66F
O`NEILL        SUNNY     44  30  59 S13       29.70F
ORD            SUNNY     50  30  46 S21G26    29.68F
THEDFORD       SUNNY     46  31  55 S15       29.64F
$$

NEZ041-046>049-061>064-073>077-083>087-272200-
SOUTH CENTRAL NEBRASKA

CITY           SKY/WX    TMP DP  RH WIND       PRES   REMARKS
GRAND ISLAND   MOSUNNY   54  35  48 SE17      29.72F
AURORA         PTSUNNY   54  33  44 S17G23    29.72F
HASTINGS       MOSUNNY   55  35  47 S16G22    29.71F
HEBRON         MOSUNNY   57  38  50 S17G26    29.73F
HOLDREGE       SUNNY     55  30  39 S13G24    29.67F
KEARNEY *      MOSUNNY   54  32  43 S15       29.69F
YORK           MOSUNNY   52  32  46 S17G23    29.74F
$$

NEZ011>018-030>034-042>045-272200-
NORTHEAST NEBRASKA

CITY           SKY/WX    TMP DP  RH WIND       PRES   REMARKS
NORFOLK        MOSUNNY   47  28  47 SE14      29.74F
ALBION         SUNNY     49  30  48 S16       29.72F
BLAIR          MOSUNNY   52  28  40 SE16G23   29.80F
FREMONT        CLOUDY    54  28  37 SE20G25   29.79F
TEKAMAH        CLOUDY    50  34  54 SE15      29.81F
WAYNE          SUNNY     43  30  60 S15       29.78F
$$

NEZ050>053-065>068-078-088>093-272200-
SOUTHEAST NEBRASKA

CITY           SKY/WX    TMP DP  RH WIND       PRES   REMARKS
LINCOLN        CLOUDY    58  30  34 SE22      29.78F
OMAHA EPPLEY   PTSUNNY   54  28  36 SE20      29.81F
BEATRICE       CLOUDY    55  36  50 SE16G24   29.76F
FALLS CITY     CLOUDY    56  31  38 SE15      29.82F
NEBRASKA CITY  CLOUDY    55  21  26 S17G26    29.81F
PLATTSMOUTH    CLOUDY    56  15  20 SE17G26   29.80F
$$

NEZ044-045-051>053-067-272200-
OMAHA AREA

CITY           SKY/WX    TMP DP  RH WIND       PRES   REMARKS
OMAHA EPPLEY   PTSUNNY   54  28  36 SE20      29.81F
BLAIR          MOSUNNY   52  28  40 SE16G23   29.80F
FREMONT        CLOUDY    54  28  37 SE20G25   29.79F
MILLARD        MOSUNNY   57  28  33 SE20G25   29.81F
OFFUTT AFB     CLOUDY    55  23  29 SE16G23   29.80F
PLATTSMOUTH    CLOUDY    56  15  20 SE17G26   29.80F
WAHOO          FAIR      53  28  38 SE21G28   29.78F
$$



USA.gov is the U.S. government's official web portal to all federal, state and local government web resources and services.